User: anonymous   Login
Location: Berkeley
(37.8716°N, 122.2727°W)
Time: 12:50:58
(UTC-07:00)
Language:

CAS-4A - Orbit

View from above orbital plane
View from above orbital plane
View from above satellite
View from above satellite

Ground track
Ground track

The orbit data is extracted from the following two-line orbital elements,

1 42761U 17034D   19113.52676315  .00000090  00000-0  19048-4 0  9990
2 42761  43.0181 178.8151 0012360 260.9388 194.3528 15.09620876102344
Epoch (UTC): 23 April 2019 12:38:32
Eccentricity: 0.0012360
inclination: 43.0181°
perigee height: 529 km
apogee height: 546 km
right ascension of ascending node: 178.8151°
argument of perigee: 260.9388°
revolutions per day: 15.09620876
mean anomaly at epoch: 194.3528°
orbit number at epoch: 10234

The dashed part of the orbit path shows where the satellite is in the earth's shadow,  

DLR